Regional Weather Roundup
Issued by NWS State College, PA

Home | Current Version | Previous Version | Text Only | Print | Product List | Glossary Off
Versions: 1 2 3 4 5 6 7 8 9 10 11 12 13 14 15 16 17 18 19 20 21 22 23 24 25 26 27 28 29 30 31 32 33 34 35 36 37 38 39 40 41 42 43 44 45 46 47 48 49 50

000
ASUS41 KCTP 280010
RWRCTP

REGIONAL WEATHER ROUNDUP
NATIONAL WEATHER SERVICE STATE COLLEGE PA
800 PM EDT WED MAY 27 2015

Note: "fair" indicates few or no clouds below 12,000 feet with no
significant weather and/or obstructions to visibility.

* = STATION THAT DOES NOT REPORT PRECIPITATION /E.G. RAIN...SNOW...ETC/
    THUNDER OR FOG.

PAZ002>004-007>009-013>016-020>023-029>032-280100-
WESTERN PENNSYLVANIA

CITY           SKY/WX    TMP DP  RH WIND       PRES   REMARKS
ERIE           LGT RAIN  63  59  87 S6        30.08S FOG
MEADVILLE      CLOUDY    66  56  70 NW8G24    30.11R
FRANKLIN*      MOCLDY    73  57  56 SW8       30.11R
NEW CASTLE     FAIR      79  63  57 VRB5      30.08S
BEAVER COUNTY  CLEAR     77  61  57 SW7       30.09S
BUTLER*        MOCLDY    75  61  60 SW8       30.11S
PITTSBURGH INT MOCLDY    79  61  53 S7        30.10S
PITTSBURGH     PTCLDY    77  58  51 SW8       30.11R
INDIANA*       CLEAR     75  63  64 SW5       30.15S
LATROBE        CLEAR     77  63  61 W14       30.14R
WASHINGTON CO* MOCLDY    75  63  64 SW5       30.13S
$$

PAZ004>006-010>012-017>019-024>028-033>037-041-042-045-046-049>053-280100-
CENTRAL PENNSYLVANIA

CITY           SKY/WX    TMP DP  RH WIND       PRES   REMARKS
BRADFORD       CLEAR     72  58  61 VRB7      30.11R
DUBOIS         CLEAR     75  58  55 SW5       30.11S
CLEARFIELD     CLEAR     75  58  55 SW8       30.12R
JOHNSTOWN      CLEAR     71  58  63 W8        30.17R
ALTOONA        CLEAR     76  59  55 SW8       30.14R
STATE COLLEGE  CLEAR     73  61  64 SW5       30.11S
WILLIAMSPORT   PTCLDY    78  64  61 S13       30.04F
SELINSGROVE    PTCLDY    77  67  71 S7        30.08F
FT INDIANTOWN  MOCLDY    74  69  86 VRB3      30.11S
CAPITAL CITY   MOCLDY    75  66  73 S3        30.10S
HARRISBURG     MOCLDY    75  67  76 SE3       30.10S
YORK           MOCLDY    75  68  78 CALM      30.12S
$$

PAZ038>040-043-044-047-048-054-055-060>062-067>071-280100-
EASTERN PENNSYLVANIA

CITY           SKY/WX    TMP DP  RH WIND       PRES   REMARKS
SCRANTON       PTCLDY    73  69  87 SW3       30.09S
MOUNT POCONO   PTCLDY    67  63  87 W6        30.15R
ALLENTOWN      CLOUDY    72  68  87 W5        30.11R
QUAKERTOWN*    CLOUDY    72  70  94 CALM      30.13S
READING        MOCLDY    74  67  78 CALM      30.10F
LANCASTER      PTCLDY    74  66  76 SW5       30.11F
COATESVILLE    MOCLDY    72  72 100 CALM      30.14S
POTTSTOWN      CLOUDY    71  71 100 CALM      30.13S
BLUE BELL      CLOUDY    73  70  88 CALM      30.12R
DOYLESTOWN     CLOUDY    70  68  93 CALM      30.12R
WILLOW GROVE   NOT AVBL
NORTH PHILA    CLOUDY    76  69  79 S5        30.14R
PHILADELPHIA   CLOUDY    75  69  81 S7        30.13R
$$


USA.gov is the U.S. government's official web portal to all federal, state and local government web resources and services.